• In Uzbekistan
  • List of Countries
  • For 7 days
  • Water Temperature
  • Satellite Maps
  • Weather Map
  • Weather Widgets
  • user-avatar
    Login

    Hourly Weather Chamba

    Today, 14 December, Friday

    Time Temperature Precipitation Wind Pressure Humidity
    00:00 +27°C° 0 mm 1 mps 730 mmHg 19%
    01:00 +27°C° 0 mm 2 mps 730 mmHg 19%
    02:00 +27°C° 0 mm 2 mps 730 mmHg 18%
    03:00 +26°C° 0 mm 2 mps 730 mmHg 18%
    04:00 +26°C° 0 mm 2 mps 730 mmHg 18%
    05:00 +25°C° 0 mm 2 mps 730 mmHg 17%
    06:00 +25°C° 0 mm 2 mps 730 mmHg 17%
    07:00 +27°C° 0 mm 2 mps 730 mmHg 15%
    08:00 +30°C° 0 mm 3 mps 730 mmHg 14%
    09:00 +33°C° 0 mm 3 mps 731 mmHg 12%
    10:00 +35°C° 0 mm 3 mps 731 mmHg 12%
    11:00 +37°C° 0 mm 3 mps 730 mmHg 11%
    12:00 +39°C° 0 mm 3 mps 730 mmHg 10%
    13:00 +39°C° 0 mm 3 mps 729 mmHg 11%
    14:00 +40°C° 0 mm 3 mps 729 mmHg 11%
    15:00 +40°C° 0 mm 2 mps 728 mmHg 11%
    16:00 +38°C° 0 mm 2 mps 728 mmHg 12%
    17:00 +35°C° 0 mm 1 mps 728 mmHg 14%
    18:00 +34°C° 0 mm 1 mps 728 mmHg 16%
    19:00 +33°C° 0 mm 1 mps 729 mmHg 16%
    20:00 +32°C° 0 mm 1 mps 729 mmHg 17%
    21:00 +31°C° 0 mm 1 mps 730 mmHg 18%
    22:00 +30°C° 0 mm 1 mps 730 mmHg 19%
    23:00 +29°C° 0 mm 1 mps 730 mmHg 20%

    Tomorrow, 15 December, Saturday

    Time Temperature Precipitation Wind Pressure Humidity
    00:00 +29°C° 0 mm 1 mps 730 mmHg 20%
    01:00 +28°C° 0 mm 1 mps 730 mmHg 23%
    02:00 +27°C° 0 mm 1 mps 730 mmHg 26%
    03:00 +27°C° 0 mm 1 mps 729 mmHg 29%
    04:00 +26°C° 0 mm 1 mps 730 mmHg 32%
    05:00 +26°C° 0 mm 1 mps 730 mmHg 35%
    06:00 +25°C° 0 mm 1 mps 730 mmHg 37%
    07:00 +28°C° 0 mm 1 mps 731 mmHg 32%
    08:00 +30°C° 0 mm 2 mps 732 mmHg 26%
    09:00 +32°C° 0 mm 2 mps 732 mmHg 20%
    10:00 +35°C° 0 mm 2 mps 732 mmHg 17%
    11:00 +37°C° 0 mm 3 mps 731 mmHg 14%
    12:00 +39°C° 0 mm 3 mps 731 mmHg 11%
    13:00 +40°C° 0 mm 3 mps 730 mmHg 10%
    14:00 +40°C° 0 mm 3 mps 729 mmHg 10%
    15:00 +41°C° 0 mm 2 mps 728 mmHg 9%
    16:00 +39°C° 0 mm 2 mps 728 mmHg 10%
    17:00 +36°C° 0 mm 1 mps 728 mmHg 12%
    18:00 +34°C° 0 mm 1 mps 728 mmHg 13%
    19:00 +33°C° 0 mm 1 mps 729 mmHg 13%
    20:00 +32°C° 0 mm 1 mps 729 mmHg 14%
    21:00 +31°C° 0 mm 1 mps 730 mmHg 15%
    22:00 +30°C° 0 mm 1 mps 730 mmHg 15%
    23:00 +30°C° 0 mm 1 mps 730 mmHg 16%

    Day after tomorrow, 16 December, Sunday

    Time Temperature Precipitation Wind Pressure Humidity
    00:00 +29°C° 0 mm 1 mps 730 mmHg 16%
    01:00 +28°C° 0 mm 1 mps 729 mmHg 18%
    02:00 +28°C° 0 mm 1 mps 729 mmHg 19%
    03:00 +27°C° 0 mm 1 mps 729 mmHg 21%
    04:00 +26°C° 0 mm 1 mps 729 mmHg 25%
    05:00 +26°C° 0 mm 1 mps 729 mmHg 28%
    06:00 +25°C° 0 mm 1 mps 729 mmHg 32%
    07:00 +27°C° 0 mm 1 mps 730 mmHg 31%
    08:00 +30°C° 0 mm 1 mps 731 mmHg 29%
    09:00 +32°C° 0 mm 1 mps 731 mmHg 27%
    10:00 +35°C° 0 mm 2 mps 731 mmHg 23%
    11:00 +37°C° 0 mm 2 mps 730 mmHg 18%
    12:00 +39°C° 0 mm 2 mps 730 mmHg 14%
    13:00 +39°C° 0 mm 2 mps 729 mmHg 13%
    14:00 +40°C° 0 mm 2 mps 728 mmHg 12%
    15:00 +40°C° 0 mm 2 mps 728 mmHg 11%
    16:00 +38°C° 0 mm 2 mps 728 mmHg 12%
    17:00 +35°C° 0 mm 1 mps 728 mmHg 13%
    18:00 +34°C° 0 mm 1 mps 728 mmHg 15%
    19:00 +33°C° 0 mm 1 mps 729 mmHg 16%
    20:00 +30°C° 0 mm 0 mps 729 mmHg 18%
    21:00 +29°C° 0 mm 0 mps 730 mmHg 19%
    22:00 +30°C° 0 mm 1 mps 730 mmHg 20%
    23:00 +29°C° 0 mm 1 mps 729 mmHg 21%

    17 December, Monday

    Time Temperature Precipitation Wind Pressure Humidity
    00:00 +29°C° 0 mm 1 mps 729 mmHg 22%
    01:00 +28°C° 0 mm 1 mps 729 mmHg 24%
    02:00 +27°C° 0 mm 1 mps 728 mmHg 27%
    03:00 +27°C° 0 mm 1 mps 728 mmHg 29%
    04:00 +26°C° 0 mm 1 mps 728 mmHg 32%
    05:00 +26°C° 0 mm 1 mps 729 mmHg 36%
    06:00 +25°C° 0 mm 1 mps 729 mmHg 39%
    07:00 +28°C° 0 mm 1 mps 730 mmHg 36%
    08:00 +30°C° 0 mm 1 mps 730 mmHg 34%
    09:00 +33°C° 0 mm 1 mps 731 mmHg 31%
    10:00 +35°C° 0 mm 1 mps 730 mmHg 27%
    11:00 +37°C° 0 mm 1 mps 730 mmHg 22%
    12:00 +40°C° 0 mm 1 mps 729 mmHg 18%
    13:00 +40°C° 0 mm 1 mps 728 mmHg 17%
    14:00 +40°C° 0 mm 1 mps 728 mmHg 16%
    15:00 +40°C° 0 mm 1 mps 727 mmHg 15%
    16:00 +39°C° 0 mm 1 mps 727 mmHg 17%
    17:00 +36°C° 0 mm 1 mps 727 mmHg 19%
    18:00 +34°C° 0 mm 1 mps 728 mmHg 20%
    19:00 +34°C° 0 mm 1 mps 728 mmHg 21%
    20:00 +33°C° 0 mm 1 mps 729 mmHg 22%
    21:00 +32°C° 0 mm 1 mps 729 mmHg 22%
    22:00 +31°C° 0 mm 1 mps 729 mmHg 22%
    23:00 +31°C° 0 mm 1 mps 729 mmHg 22%

    18 December, Tuesday

    Time Temperature Precipitation Wind Pressure Humidity
    00:00 +30°C° 0 mm 1 mps 729 mmHg 22%
    01:00 +29°C° 0 mm 1 mps 729 mmHg 25%
    02:00 +28°C° 0 mm 1 mps 728 mmHg 27%
    03:00 +28°C° 0 mm 1 mps 728 mmHg 29%
    04:00 +27°C° 0 mm 1 mps 728 mmHg 31%
    05:00 +27°C° 0 mm 1 mps 729 mmHg 33%
    06:00 +26°C° 0 mm 1 mps 729 mmHg 34%
    07:00 +28°C° 0 mm 1 mps 730 mmHg 36%
    08:00 +30°C° 0 mm 1 mps 730 mmHg 37%
    09:00 +33°C° 0 mm 1 mps 731 mmHg 39%
    10:00 +34°C° 0 mm 1 mps 730 mmHg 34%
    11:00 +36°C° 0 mm 1 mps 730 mmHg 29%
    12:00 +39°C° 0 mm 1 mps 729 mmHg 24%
    13:00 +39°C° 0 mm 1 mps 729 mmHg 22%
    14:00 +40°C° 0 mm 1 mps 728 mmHg 21%
    15:00 +40°C° 0 mm 1 mps 727 mmHg 19%
    16:00 +39°C° 0 mm 1 mps 727 mmHg 19%
    17:00 +36°C° 0 mm 1 mps 728 mmHg 20%
    18:00 +35°C° 0 mm 1 mps 728 mmHg 21%
    19:00 +34°C° 0 mm 1 mps 728 mmHg 21%
    20:00 +33°C° 0 mm 1 mps 729 mmHg 21%
    21:00 +32°C° 0 mm 1 mps 729 mmHg 21%
    22:00 +31°C° 0 mm 1 mps 729 mmHg 21%
    23:00 +30°C° 0 mm 1 mps 729 mmHg 21%

    19 December, Wednesday

    Time Temperature Precipitation Wind Pressure Humidity
    00:00 +29°C° 0 mm 1 mps 729 mmHg 21%
    01:00 +28°C° 0 mm 1 mps 728 mmHg 24%
    02:00 +28°C° 0 mm 1 mps 728 mmHg 26%
    03:00 +27°C° 0 mm 1 mps 728 mmHg 29%
    04:00 +27°C° 0 mm 1 mps 728 mmHg 30%
    05:00 +26°C° 0 mm 1 mps 729 mmHg 31%
    06:00 +26°C° 0 mm 1 mps 729 mmHg 32%
    07:00 +28°C° 0 mm 1 mps 730 mmHg 33%
    08:00 +30°C° 0 mm 1 mps 730 mmHg 34%
    09:00 +32°C° 0 mm 1 mps 731 mmHg 34%
    10:00 +34°C° 0 mm 1 mps 730 mmHg 30%
    11:00 +36°C° 0 mm 1 mps 730 mmHg 26%
    12:00 +39°C° 0 mm 1 mps 729 mmHg 22%
    13:00 +39°C° 0 mm 1 mps 728 mmHg 20%
    14:00 +40°C° 0 mm 1 mps 728 mmHg 19%
    15:00 +40°C° 0 mm 1 mps 727 mmHg 17%
    16:00 +37°C° 0 mm 1 mps 727 mmHg 18%
    17:00 +36°C° 0 mm 1 mps 727 mmHg 19%
    18:00 +34°C° 0 mm 1 mps 727 mmHg 19%
    19:00 +33°C° 0 mm 1 mps 728 mmHg 19%
    20:00 +32°C° 0 mm 1 mps 728 mmHg 19%
    21:00 +31°C° 0 mm 1 mps 729 mmHg 19%
    22:00 +31°C° 0 mm 1 mps 729 mmHg 18%
    23:00 +30°C° 0 mm 2 mps 729 mmHg 18%
    Show more